Location: Artiguedieu
(43.5000°N, 0.5454°E)
Time: 20:56:26
(UTC+00:00)

Transit 2A - Pass Details

Date: 29 July 2021
Orbit: 594 x 964 km, 66.7° (Epoch: 28 September)

Event Time Altitude Azimuth Distance (km) Brightness Sun altitude
Rises 17:20:58 0° 309° (NW) 3,321 10.3 20.4°
Reaches altitude 10° 17:24:32 10° 285° (WNW) 2,465 10.8 19.8°
Maximum altitude 17:27:21 14° 255° (WSW) 2,240 10.0 19.2°
Drops below altitude 10° 17:30:17 10° 226° (SW) 2,569 9.4 18.7°
Sets 17:34:09 0° 202° (SSW) 3,565 9.6 18.0°
